Regional Weather Roundup
Issued by NWS

Home | Current Version | Previous Version | Graphics & Text | Print | Product List | Glossary On
Versions: 1 2 3 4 5 6 7 8 9 10 11 12 13 14 15 16 17 18 19 20 21 22 23 24 25 26 27 28 29 30 31 32 33 34 35 36 37 38 39 40 41 42 43 44 45 46 47 48 49 50
000
ASUS44 KOUN 190510
RWROK

WEATHER ROUNDUP FOR OKLAHOMA
NATIONAL WEATHER SERVICE NORMAN OK
1200 AM CDT THU OCT 19 2017

NOTE: "FAIR" INDICATES FEW OR NO CLOUDS BELOW 12,000 FEET WITH NO
      SIGNIFICANT WEATHER AND/OR OBSTRUCTIONS TO VISIBILITY.

OKZ001>007-009>012-014-015-017-190600-
NORTHWEST OKLAHOMA AND THE PANHANDLE

CITY           SKY/WX    TMP DP  RH WIND       PRES   REMARKS
GAGE           CLOUDY    64  44  48 S15       30.05S
GUYMON         CLOUDY    55  48  77 SW7       30.08S
ENID/WOODRING  CLOUDY    54  50  87 CALM      30.06R
$$

OKZ016-021>023-033>039-044-045-190600-
SOUTHWEST OKLAHOMA

CITY           SKY/WX    TMP DP  RH WIND       PRES   REMARKS
LAWTON/REGL    PTCLDY    59  49  69 E5        30.07S
LAWTON/FT SILL MOCLDY    59  49  68 SE5       30.06S
FREDERICK      CLOUDY    62  48  60 SE10      30.03S
CLINTON        CLOUDY    60  46  59 S12       30.09R
HOBART         CLOUDY    67  44  43 S15       30.06R
ALTUS AFB      PTCLDY    61  45  54 SE8       30.05R
$$

OKZ018>020-024>031-190600-
CENTRAL OKLAHOMA

CITY           SKY/WX    TMP DP  RH WIND       PRES   REMARKS
OKLAHOMA CITY  MOCLDY    57  46  66 S9        30.08S
OKC/WILEY POST CLOUDY    64  46  52 S16       30.07S
OKC/TINKER AFB CLOUDY    63  45  52 S15       30.08S
STILLWATER     PTCLDY    55  49  80 SE5       30.07S
GUTHRIE        CLOUDY    61  47  59 S5        30.07R
$$

OKZ008-013-054>072-190600-
NORTHEAST OKLAHOMA

CITY           SKY/WX    TMP DP  RH WIND       PRES   REMARKS
TULSA          PTCLDY    65  47  52 S12       30.08S
TULSA/JONES    PTCLDY    55  49  80 CALM      30.10R
PONCA CITY     PTCLDY    65  48  54 S5        30.07R
BARTLESVILLE   CLEAR     60  47  61 S6        30.09S
MUSKOGEE       CLEAR     56  47  71 SE7       30.11S
$$

OKZ032-040>043-046>053-073>077-190600-
SOUTH CENTRAL/SOUTHEAST OKLAHOMA

CITY           SKY/WX    TMP DP  RH WIND       PRES   REMARKS
ARDMORE/DWNTWN CLOUDY    63  41  45 CALM      30.10S
MCALESTER      CLOUDY    54  49  83 CALM      30.12S
$$





USA.gov is the U.S. government's official web portal to all federal, state and local government web resources and services.